Weather History for International Falls, MN

Change the Weather History Date:

Friday, August 22, 2014

  Actual Average Record
Temperature  
Mean Temperature 68 °F 62 °F  
Max Temperature 75 °F 75 °F 91 °F (1947)
Min Temperature 60 °F 50 °F 32 °F (1958)
Degree Days  
Heating Degree Days 0 4  
Month to date heating degree days 62 64  
Since 1 June heating degree days 294 298  
Since 1 July heating degree days 165 134  
Cooling Degree Days 3 2  
Month to date cooling degree days 10 44  
Year to date cooling degree days 105 167  
Since 1 June cooling degree days 82 158  
Growing Degree Days 19 (Base 50)    
Moisture  
Dew Point 63 °F    
Average Humidity 87    
Maximum Humidity 100    
Minimum Humidity 73    
Precipitation  
Precipitation 0.00 in 0.08 in 1.95 in (1917)
Month to date precipitation 0.31 1.98  
Year to date precipitation 23.95 16.13  
Snow  
Snow 0.00 in 0.00 in T in (1995)
Month to date snowfall 0.0 0.0  
Since 1 June snowfall 0.0 0.0  
Since 1 July snowfall 0.0 0.0  
Snow Depth 0.00 in    
Sea Level Pressure  
Sea Level Pressure 29.99 in    
Wind  
Wind Speed 3 mph (NE)    
Max Wind Speed 9 mph    
Max Gust Speed 11 mph    
Visibility 10 miles    
Events      
T = Trace of Precipitation, MM = Missing Value Source: NWS Daily Summary

Daily Weather History Graph

Daily Weather History Graph

Search for Another Location

Airport:

Trip Planner

Search our weather history database for the weather conditions in past years. The results will help you decide how hot, cold, wet, or windy it might be!

Date:

Astronomy

Aug. 22, 2014 Rise Set
Actual Time 6:16 AM CDT 8:15 PM CDT
Civil Twilight 5:43 AM CDT 8:48 PM CDT
Nautical Twilight 5:01 AM CDT 9:30 PM CDT
Astronomical Twilight 4:14 AM CDT 10:16 PM CDT
Moon 3:33 AM CDT (8/22) 6:28 PM CDT (8/22)
Length of Visible Light 15h 05m
Length of Day
13h 58m
Waning Crescent, 7% of the Moon is Illuminated
Aug 22
Waning Crescent
Aug 25
New
Sep 2
First Quarter
Sep 8
Full
Sep 15
Last Quarter

Hourly Weather History & Observations

Time (CDT) Temp. Dew Point Humidity Pressure Visibility Wind Dir Wind Speed Gust Speed Precip Events Conditions
12:55 AM 64.0 °F 60.1 °F 87% 29.93 in 10.0 mi Calm Calm - N/A   Overcast
1:55 AM 64.0 °F 60.1 °F 87% 29.93 in 10.0 mi Calm Calm - N/A   Overcast
2:27 AM 63.0 °F 60.1 °F 90% 29.93 in 10.0 mi East 3.5 mph - N/A   Overcast
2:55 AM 63.0 °F 60.1 °F 90% 29.94 in 10.0 mi ESE 4.6 mph - N/A   Overcast
3:35 AM 63.0 °F 61.0 °F 93% 29.95 in 10.0 mi ESE 3.5 mph - N/A   Overcast
3:55 AM 64.0 °F 61.0 °F 90% 29.94 in 10.0 mi Calm Calm - N/A   Overcast
4:55 AM 64.0 °F 60.1 °F 87% 29.95 in 10.0 mi East 4.6 mph - N/A   Overcast
5:55 AM 64.0 °F 61.0 °F 90% 29.95 in 10.0 mi Calm Calm - N/A   Overcast
6:55 AM 64.0 °F 61.0 °F 90% 29.98 in 10.0 mi Calm Calm - N/A   Overcast
7:55 AM 64.9 °F 61.0 °F 87% 29.99 in 10.0 mi Calm Calm - N/A   Overcast
8:55 AM 66.0 °F 62.1 °F 87% 29.99 in 10.0 mi Calm Calm - N/A   Overcast
9:20 AM 66.9 °F 62.1 °F 84% 29.99 in 10.0 mi NNE 4.6 mph - N/A   Overcast
9:29 AM 68.0 °F 63.0 °F 84% 29.99 in 10.0 mi NE 6.9 mph - N/A   Overcast
9:55 AM 68.0 °F 63.0 °F 84% 29.99 in 10.0 mi NNE 5.8 mph - N/A   Overcast
10:34 AM 68.0 °F 63.0 °F 84% 29.99 in 10.0 mi ENE 5.8 mph - N/A   Overcast
10:55 AM 68.0 °F 63.0 °F 84% 30.00 in 10.0 mi ENE 5.8 mph - N/A   Overcast
11:55 AM 71.1 °F 64.0 °F 78% 30.01 in 10.0 mi Variable 3.5 mph - N/A   Overcast
12:25 PM 71.1 °F 64.0 °F 78% 30.01 in 10.0 mi Calm Calm - N/A   Overcast
12:55 PM 71.1 °F 64.0 °F 78% 30.00 in 10.0 mi NNE 5.8 mph - N/A   Overcast
1:55 PM 73.9 °F 64.0 °F 71% 30.00 in 10.0 mi North - - N/A   Overcast
2:55 PM 73.0 °F 64.0 °F 73% 30.00 in 10.0 mi North 8.1 mph - N/A   Overcast
3:55 PM 73.9 °F 64.0 °F 71% 30.01 in 10.0 mi NNE 6.9 mph - N/A   Overcast
4:55 PM 73.0 °F 64.9 °F 76% 30.02 in 10.0 mi NNE 6.9 mph - N/A   Overcast
5:11 PM 73.0 °F 64.9 °F 76% 30.02 in 10.0 mi NE 5.8 mph - N/A   Overcast
5:34 PM 73.0 °F 64.0 °F 73% 30.02 in 10.0 mi NE 5.8 mph - N/A   Mostly Cloudy
5:55 PM 73.9 °F 64.0 °F 71% 30.02 in 10.0 mi NNE 4.6 mph - N/A   Mostly Cloudy
6:55 PM 72.0 °F 64.9 °F 78% 30.02 in 10.0 mi ENE 3.5 mph - N/A   Clear
7:55 PM 69.1 °F 64.9 °F 87% 30.03 in 10.0 mi NE 3.5 mph - N/A   Clear
8:55 PM 68.0 °F 64.9 °F 90% 30.04 in 10.0 mi NNE 4.6 mph - N/A   Clear
9:55 PM 68.0 °F 64.9 °F 90% 30.06 in 10.0 mi North 3.5 mph - N/A   Overcast
10:55 PM 66.9 °F 64.9 °F 93% 30.06 in 10.0 mi NNE 3.5 mph - N/A   Partly Cloudy
11:55 PM 61.0 °F 61.0 °F 100% 30.07 in 10.0 mi Calm Calm - N/A   Clear